Location: Le Rouget
(44.8538°N, 2.2328°E)
Time: 16:02:29
(UTC+00:00)

Cosmos 1743 - Pass Details

Date: 15 May 2026
Orbit: 367 x 372 km, 82.5° (Epoch: 9 June)

Event Time Altitude Azimuth Distance (km) Brightness Sun altitude
Rises 19:44:05 0° 354° (N) 2,249 6.6 -5.5°
Reaches altitude 10° 19:46:05 10° 358° (N) 1,396 5.4 -5.8°
Maximum altitude 19:49:05 61° 80° (E) 435 2.1 -6.3°
Drops below altitude 10° 19:52:04 10° 162° (SSE) 1,392 4.4 -6.7°
Enters shadow 19:53:12 - 165° (SSE) 1,873 5.1 -6.9°
